• In Hungary
  • List of Countries
  • For 7 days
  • Water Temperature
  • Satellite Maps
  • Weather Map
  • News
  • Weather Widgets
  • user-avatar
    Login

    Hourly Weather Huancavelica

    Today, 15 November, Thursday

    Time Temperature Precipitation Wind Pressure Humidity
    00:00 +8°C° 0 mm 1 mps 465 mmHg 86%
    01:00 +7°C° 0 mm 1 mps 465 mmHg 88%
    02:00 +6°C° 0 mm 0 mps 465 mmHg 89%
    03:00 +6°C° 0 mm 0 mps 464 mmHg 90%
    04:00 +6°C° 0 mm 0 mps 464 mmHg 90%
    05:00 +7°C° 0 mm 1 mps 465 mmHg 87%
    06:00 +8°C° 0 mm 1 mps 465 mmHg 83%
    07:00 +8°C° 0 mm 1 mps 466 mmHg 79%
    08:00 +10°C° 0 mm 1 mps 467 mmHg 71%
    09:00 +10°C° 0 mm 2 mps 468 mmHg 62%
    10:00 +13°C° 0 mm 2 mps 469 mmHg 54%
    11:00 +13°C° 0.2 mm 3 mps 469 mmHg 52%
    12:00 +13°C° 0.2 mm 3 mps 469 mmHg 51%
    13:00 +14°C° 0.2 mm 4 mps 469 mmHg 49%
    14:00 +13°C° 0.6 mm 3 mps 468 mmHg 53%
    15:00 +12°C° 0.6 mm 3 mps 467 mmHg 58%
    16:00 +12°C° 0.6 mm 3 mps 467 mmHg 62%
    17:00 +12°C° 0.7 mm 2 mps 466 mmHg 68%
    18:00 +10°C° 0.7 mm 2 mps 466 mmHg 75%
    19:00 +8°C° 0.7 mm 2 mps 466 mmHg 81%
    20:00 +8°C° 0.7 mm 2 mps 466 mmHg 82%
    21:00 +9°C° 0.7 mm 1 mps 466 mmHg 84%
    22:00 +8°C° 0.7 mm 1 mps 466 mmHg 85%
    23:00 +8°C° 0.3 mm 1 mps 466 mmHg 86%

    Tomorrow, 16 November, Friday

    Time Temperature Precipitation Wind Pressure Humidity
    00:00 +8°C° 0.3 mm 1 mps 466 mmHg 86%
    01:00 +8°C° 0.3 mm 1 mps 465 mmHg 87%
    02:00 +8°C° 0 mm 1 mps 465 mmHg 88%
    03:00 +6°C° 0 mm 0 mps 465 mmHg 88%
    04:00 +6°C° 0 mm 0 mps 464 mmHg 89%
    05:00 +7°C° 0 mm 0 mps 465 mmHg 86%
    06:00 +7°C° 0 mm 0 mps 465 mmHg 83%
    07:00 +7°C° 0 mm 0 mps 466 mmHg 80%
    08:00 +9°C° 0 mm 1 mps 466 mmHg 73%
    09:00 +10°C° 0 mm 2 mps 467 mmHg 66%
    10:00 +12°C° 0 mm 2 mps 468 mmHg 60%
    11:00 +13°C° 0.5 mm 2 mps 468 mmHg 58%
    12:00 +13°C° 0.5 mm 2 mps 468 mmHg 56%
    13:00 +13°C° 0.5 mm 3 mps 468 mmHg 55%
    14:00 +12°C° 0.9 mm 3 mps 468 mmHg 58%
    15:00 +12°C° 0.9 mm 3 mps 467 mmHg 61%
    16:00 +11°C° 0.9 mm 3 mps 466 mmHg 64%
    17:00 +10°C° 0.4 mm 3 mps 466 mmHg 67%
    18:00 +9°C° 0.4 mm 2 mps 466 mmHg 71%
    19:00 +8°C° 0.4 mm 2 mps 466 mmHg 75%
    20:00 +8°C° 0.1 mm 2 mps 466 mmHg 76%
    21:00 +9°C° 0.1 mm 1 mps 466 mmHg 77%
    22:00 +8°C° 0.1 mm 1 mps 466 mmHg 79%
    23:00 +8°C° 0 mm 1 mps 466 mmHg 79%

    Day after tomorrow, 17 November, Saturday

    Time Temperature Precipitation Wind Pressure Humidity
    00:00 +8°C° 0 mm 1 mps 465 mmHg 80%
    01:00 +7°C° 0 mm 1 mps 465 mmHg 81%
    02:00 +7°C° 0 mm 1 mps 465 mmHg 79%
    03:00 +7°C° 0 mm 1 mps 464 mmHg 78%
    04:00 +7°C° 0 mm 1 mps 464 mmHg 76%
    05:00 +7°C° 0 mm 1 mps 465 mmHg 67%
    06:00 +8°C° 0 mm 1 mps 465 mmHg 58%
    07:00 +9°C° 0 mm 1 mps 466 mmHg 49%
    08:00 +10°C° 0 mm 1 mps 467 mmHg 42%
    09:00 +12°C° 0 mm 2 mps 469 mmHg 36%
    10:00 +14°C° 0 mm 2 mps 470 mmHg 29%
    11:00 +15°C° 0 mm 2 mps 470 mmHg 29%
    12:00 +16°C° 0 mm 3 mps 470 mmHg 29%
    13:00 +17°C° 0 mm 4 mps 470 mmHg 30%
    14:00 +16°C° 0.5 mm 3 mps 469 mmHg 36%
    15:00 +14°C° 0.5 mm 3 mps 468 mmHg 43%
    16:00 +13°C° 0.5 mm 3 mps 467 mmHg 50%
    17:00 +12°C° 0.5 mm 3 mps 467 mmHg 58%
    18:00 +10°C° 0.5 mm 2 mps 467 mmHg 65%
    19:00 +9°C° 0.5 mm 2 mps 466 mmHg 73%
    20:00 +10°C° 0.1 mm 1 mps 466 mmHg 77%
    21:00 +9°C° 0.1 mm 1 mps 466 mmHg 80%
    22:00 +9°C° 0.1 mm 1 mps 466 mmHg 83%
    23:00 +8°C° 0 mm 1 mps 466 mmHg 85%

    18 November, Sunday

    Time Temperature Precipitation Wind Pressure Humidity
    00:00 +8°C° 0 mm 1 mps 465 mmHg 86%
    01:00 +8°C° 0 mm 1 mps 465 mmHg 87%
    02:00 +7°C° 0 mm 0 mps 465 mmHg 86%
    03:00 +6°C° 0 mm 0 mps 464 mmHg 86%
    04:00 +6°C° 0 mm 0 mps 464 mmHg 86%
    05:00 +8°C° 0 mm 1 mps 465 mmHg 82%
    06:00 +8°C° 0 mm 1 mps 465 mmHg 77%
    07:00 +9°C° 0 mm 1 mps 466 mmHg 73%
    08:00 +10°C° 0 mm 1 mps 467 mmHg 66%
    09:00 +12°C° 0 mm 2 mps 468 mmHg 58%
    10:00 +13°C° 0 mm 2 mps 469 mmHg 50%
    11:00 +13°C° 0.2 mm 3 mps 469 mmHg 48%
    12:00 +14°C° 0.2 mm 3 mps 469 mmHg 46%
    13:00 +16°C° 0.2 mm 3 mps 469 mmHg 44%
    14:00 +14°C° 1.1 mm 3 mps 468 mmHg 49%
    15:00 +13°C° 1.1 mm 3 mps 467 mmHg 55%
    16:00 +12°C° 1.1 mm 3 mps 466 mmHg 61%
    17:00 +11°C° 1.4 mm 3 mps 466 mmHg 67%
    18:00 +9°C° 1.4 mm 3 mps 466 mmHg 73%
    19:00 +8°C° 1.4 mm 2 mps 466 mmHg 79%
    20:00 +8°C° 0.5 mm 2 mps 466 mmHg 80%
    21:00 +9°C° 0.5 mm 1 mps 466 mmHg 80%
    22:00 +8°C° 0.5 mm 1 mps 466 mmHg 81%
    23:00 +8°C° 0.2 mm 1 mps 466 mmHg 81%

    19 November, Monday

    Time Temperature Precipitation Wind Pressure Humidity
    00:00 +8°C° 0.2 mm 1 mps 465 mmHg 82%
    01:00 +8°C° 0.2 mm 1 mps 465 mmHg 82%
    02:00 +8°C° 0.2 mm 1 mps 465 mmHg 82%
    03:00 +8°C° 0.2 mm 1 mps 464 mmHg 83%
    04:00 +7°C° 0.2 mm 1 mps 464 mmHg 83%
    05:00 +7°C° 0.3 mm 1 mps 464 mmHg 83%
    06:00 +8°C° 0.3 mm 1 mps 465 mmHg 82%
    07:00 +8°C° 0.3 mm 1 mps 465 mmHg 82%
    08:00 +8°C° 0.3 mm 1 mps 466 mmHg 77%
    09:00 +9°C° 0.3 mm 1 mps 466 mmHg 73%
    10:00 +9°C° 0.3 mm 2 mps 467 mmHg 68%
    11:00 +9°C° 0.4 mm 2 mps 467 mmHg 67%
    12:00 +10°C° 0.4 mm 2 mps 467 mmHg 66%
    13:00 +10°C° 0.4 mm 3 mps 466 mmHg 64%
    14:00 +10°C° 1.1 mm 3 mps 466 mmHg 66%
    15:00 +9°C° 1.1 mm 3 mps 465 mmHg 68%
    16:00 +9°C° 1.1 mm 3 mps 465 mmHg 70%
    17:00 +8°C° 0.8 mm 3 mps 465 mmHg 72%
    18:00 +7°C° 0.8 mm 2 mps 465 mmHg 75%
    19:00 +8°C° 0.8 mm 1 mps 465 mmHg 77%
    20:00 +7°C° 0.1 mm 1 mps 465 mmHg 78%
    21:00 +7°C° 0.1 mm 1 mps 465 mmHg 79%
    22:00 +7°C° 0.1 mm 1 mps 465 mmHg 79%
    23:00 +7°C° 0 mm 1 mps 465 mmHg 80%

    20 November, Tuesday

    Time Temperature Precipitation Wind Pressure Humidity
    00:00 +6°C° 0 mm 1 mps 464 mmHg 80%
    01:00 +6°C° 0 mm 1 mps 463 mmHg 81%
    02:00 +6°C° 0 mm 1 mps 463 mmHg 78%
    03:00 +5°C° 0 mm 1 mps 463 mmHg 75%
    04:00 +5°C° 0 mm 1 mps 462 mmHg 72%
    05:00 +6°C° 0 mm 1 mps 463 mmHg 63%
    06:00 +7°C° 0 mm 1 mps 464 mmHg 54%
    07:00 +8°C° 0 mm 1 mps 465 mmHg 45%
    08:00 +9°C° 0 mm 1 mps 466 mmHg 41%
    09:00 +11°C° 0 mm 1 mps 467 mmHg 37%
    10:00 +12°C° 0 mm 2 mps 468 mmHg 34%
    11:00 +13°C° 0 mm 2 mps 468 mmHg 34%
    12:00 +13°C° 0 mm 3 mps 469 mmHg 34%
    13:00 +14°C° 0 mm 3 mps 469 mmHg 34%
    14:00 +13°C° 0.1 mm 3 mps 468 mmHg 41%
    15:00 +12°C° 0.1 mm 3 mps 467 mmHg 48%
    16:00 +12°C° 0.1 mm 3 mps 467 mmHg 54%
    17:00 +10°C° 0.2 mm 3 mps 466 mmHg 63%
    18:00 +9°C° 0.2 mm 2 mps 466 mmHg 71%
    19:00 +8°C° 0.2 mm 2 mps 466 mmHg 79%
    20:00 +7°C° 0.1 mm 2 mps 466 mmHg 81%
    21:00 +8°C° 0.1 mm 1 mps 466 mmHg 84%
    22:00 +8°C° 0.1 mm 1 mps 466 mmHg 86%
    23:00 +8°C° 0.1 mm 1 mps 466 mmHg 86%
    Show more